Location: �clusier
(49.9361°N, 2.7869°E)
Time: 01:11:36
(UTC+00:00)

USA 215 - Visible Passes

Search period start: 24 October 2021 00:00
Search period end: 03 November 2021 00:00
Orbit: 1102 x 1106 km, 123.0° (Epoch: 22 October)

Date Brightness Start Highest point End Pass type
(mag) Time Alt. Az. Time Alt. Az. Time Alt. Az.
24 Oct 3.3 17:22:06 10° ENE 17:28:41 82° SSE 17:35:15 10° SW visible
24 Oct 3.7 19:08:28 31° NE 19:11:32 55° NNW 19:17:52 10° W visible
24 Oct 4.3 20:55:49 40° NW 20:55:49 40° NW 21:00:16 10° WNW visible
24 Oct 5.8 22:43:11 10° WNW 22:43:11 10° WNW 22:43:12 10° WNW visible
25 Oct 3.4 18:24:03 19° NE 18:28:58 71° NNW 18:35:28 10° WSW visible
25 Oct 3.8 20:11:24 49° N 20:11:34 49° N 20:17:47 10° WNW visible
25 Oct 5.3 21:58:45 19° NW 21:58:45 19° NW 22:00:26 10° WNW visible
26 Oct 3.3 17:39:39 10° ENE 17:46:14 82° SE 17:52:48 10° SW visible
26 Oct 3.7 19:26:59 40° NE 19:29:05 55° NNW 19:35:26 10° W visible
26 Oct 4.7 21:14:20 31° NW 21:14:20 31° NW 21:17:48 10° WNW visible
27 Oct 3.6 16:56:56 10° ENE 17:03:19 52° SE 17:09:39 10° SSW visible
27 Oct 3.4 18:42:35 26° NE 18:46:32 70° NNW 18:53:01 10° WSW visible
27 Oct 4.0 20:29:56 46° NNW 20:29:56 46° NNW 20:35:21 10° WNW visible
27 Oct 5.7 22:17:18 13° WNW 22:17:18 13° WNW 22:17:59 10° WNW visible
28 Oct 3.2 17:58:11 15° ENE 18:03:48 83° SSE 18:10:21 10° SW visible
28 Oct 3.7 19:45:32 49° NNE 19:46:38 55° NNW 19:52:59 10° W visible
28 Oct 5.1 21:32:54 24° NW 21:32:54 24° NW 21:35:22 10° WNW visible
29 Oct 3.6 17:14:29 10° ENE 17:20:52 52° SE 17:27:13 10° SSW visible
29 Oct 3.4 19:01:10 35° NE 19:04:04 70° NNW 19:10:34 10° WSW visible
29 Oct 4.4 20:48:31 39° NW 20:48:31 39° NW 20:52:53 10° WNW visible
30 Oct 3.2 18:16:48 22° ENE 18:21:21 83° SE 18:27:54 10° SW visible
30 Oct 3.7 20:04:09 55° NNW 20:04:11 55° NNW 20:10:32 10° W visible
30 Oct 5.5 21:51:31 17° WNW 21:51:31 17° WNW 21:52:54 10° WNW visible
31 Oct 3.5 17:32:26 12° ENE 17:38:25 52° SE 17:44:47 10° SW visible
31 Oct 3.4 19:19:48 49° NE 19:21:38 70° NNW 19:28:07 10° WSW visible
31 Oct 4.8 21:07:09 30° WNW 21:07:09 30° WNW 21:10:27 10° WNW visible
01 Nov 4.2 16:49:39 10° ENE 16:55:16 30° SE 17:00:53 10° S visible
01 Nov 3.2 18:35:28 31° ENE 18:38:55 83° SSE 18:45:28 10° SW visible
01 Nov 3.9 20:22:50 49° NW 20:22:50 49° NW 20:28:05 10° W visible
01 Nov 5.8 22:10:11 11° WNW 22:10:11 11° WNW 22:10:28 10° WNW visible
02 Nov 3.5 17:51:09 18° ENE 17:55:59 53° SE 18:02:20 10° SW visible
02 Nov 3.3 19:38:30 65° NNE 19:39:10 70° NNW 19:45:40 10° WSW visible
02 Nov 5.2 21:25:52 22° WNW 21:25:52 22° WNW 21:27:59 10° WNW visible
